Weather History for KFIG - September, 2013

Change the Weather History Date:

Monday, September 9, 2013

  Actual Average (KDUJ) Record (KDUJ)
Temperature  
Mean Temperature 56 °F 62 °F  
Max Temperature 71 °F 73 °F 89 °F (1964)
Min Temperature 42 °F 52 °F 38 °F (1986)
Degree Days  
Heating Degree Days 9 4  
Month to date heating degree days 27  
Since 1 July heating degree days 89  
Cooling Degree Days 0 1  
Month to date cooling degree days 16  
Year to date cooling degree days 347  
Growing Degree Days 6 (Base 50)    
Moisture  
Dew Point 52 °F    
Average Humidity 81    
Maximum Humidity 100    
Minimum Humidity 52    
Precipitation  
Precipitation 0.03 in 0.13 in 1.02 in (1990)
Month to date precipitation 1.15  
Sea Level Pressure  
Sea Level Pressure 30.15 in    
Wind  
Wind Speed 5 mph (NNE)    
Max Wind Speed 8 mph    
Max Gust Speed -    
Visibility 9 miles    
Events Rain    
T = Trace of Precipitation, MM = Missing Value Source: NWS Daily Summary

Daily Weather History Graph

Daily Weather History Graph

Search for Another Location

Airport or City:

Trip Planner

Search our weather history database for the weather conditions in past years. The results will help you decide how hot, cold, wet, or windy it might be!

Date:

Astronomy

Sep. 09, 2013 Rise Set
Actual Time 6:48 AM EDT 7:32 PM EDT
Civil Twilight 6:20 AM EDT 8:00 PM EDT
Nautical Twilight 5:47 AM EDT 8:33 PM EDT
Astronomical Twilight 5:13 AM EDT 9:07 PM EDT
Moon 11:10 AM EDT (9/9) 9:45 PM EDT (9/9)
Length of Visible Light 13h 39m
Length of Day
12h 44m
Waxing Crescent, 19% of the Moon is Illuminated
Sep 9
Waxing Crescent
Sep 12
First Quarter
Sep 19
Full
Sep 26
Last Quarter
Oct 4
New

Hourly Weather History & Observations

Time (EDT) Temp. Windchill Dew Point Humidity Pressure Visibility Wind Dir Wind Speed Gust Speed Precip Events Conditions
12:54 AM 50.0 °F - 48.0 °F 93% 30.14 in 10.0 mi North 5.8 mph - N/A   Clear
1:54 AM 48.0 °F - 46.9 °F 96% 30.15 in 10.0 mi NNE 6.9 mph - N/A   Clear
2:54 AM 46.9 °F - 45.0 °F 93% 30.15 in 10.0 mi Calm Calm - N/A   Clear
3:54 AM 46.0 °F 43.1 °F 45.0 °F 96% 30.16 in 10.0 mi North 5.8 mph - N/A   Clear
4:54 AM 43.0 °F 38.2 °F 43.0 °F 100% 30.17 in 10.0 mi North 8.1 mph - N/A   Clear
5:54 AM 42.1 °F - 42.1 °F 100% 30.18 in 10.0 mi Calm Calm - N/A   Clear
6:54 AM 42.1 °F 37.1 °F 42.1 °F 100% 30.18 in 10.0 mi NNE 8.1 mph - N/A   Partly Cloudy
7:54 AM 45.0 °F 40.6 °F 44.1 °F 97% 30.20 in 10.0 mi NNE 8.1 mph - N/A   Clear
8:54 AM 48.9 °F - 45.0 °F 86% 30.21 in 10.0 mi NE 8.1 mph - N/A   Clear
9:54 AM 55.0 °F - 46.0 °F 72% 30.21 in 10.0 mi NE 5.8 mph - N/A   Scattered Clouds
10:54 AM 60.1 °F - 46.9 °F 62% 30.19 in 10.0 mi NNE 3.5 mph - N/A   Clear
11:54 AM 66.0 °F - 48.0 °F 52% 30.18 in 10.0 mi Calm Calm - N/A   Clear
12:54 PM 69.1 °F - 51.1 °F 53% 30.16 in 10.0 mi South 5.8 mph - N/A   Partly Cloudy
1:41 PM 68.0 °F - 51.8 °F 56% 30.16 in 10.0 mi Variable 3.5 mph - N/A   Mostly Cloudy
1:54 PM 69.1 °F - 52.0 °F 54% 30.16 in 10.0 mi Variable 3.5 mph - N/A   Overcast
2:46 PM 69.8 °F - 53.6 °F 56% 30.15 in 10.0 mi Variable 4.6 mph - N/A   Scattered Clouds
2:54 PM 69.1 °F - 53.1 °F 57% 30.14 in 10.0 mi Variable 3.5 mph - N/A   Mostly Cloudy
3:54 PM 69.1 °F - 54.0 °F 58% 30.12 in 10.0 mi Calm Calm - N/A   Mostly Cloudy
4:54 PM 70.0 °F - 55.0 °F 59% 30.12 in 10.0 mi Variable 3.5 mph - N/A   Scattered Clouds
5:54 PM 68.0 °F - 55.9 °F 65% 30.12 in 10.0 mi Calm Calm - N/A   Overcast
6:54 PM 64.9 °F - 57.0 °F 75% 30.12 in 10.0 mi Calm Calm - 0.00 in   Overcast
7:54 PM 64.9 °F - 57.0 °F 75% 30.13 in 10.0 mi East 3.5 mph - N/A   Overcast
8:54 PM 64.9 °F - 57.0 °F 75% 30.13 in 10.0 mi Calm Calm - N/A   Mostly Cloudy
9:54 PM 62.1 °F - 60.1 °F 93% 30.14 in 10.0 mi North 3.5 mph - 0.01 in Rain Light Rain
10:54 PM 60.1 °F - 60.1 °F 100% 30.12 in 8.0 mi North 4.6 mph - 0.02 in   Mostly Cloudy
10:58 PM 60.8 °F - 60.8 °F 100% 30.13 in 2.0 mi NNW 4.6 mph - N/A   Mostly Cloudy
11:02 PM 60.8 °F - 60.8 °F 100% 30.13 in 0.8 mi North 4.6 mph - N/A   Mostly Cloudy
11:10 PM 60.8 °F - 60.8 °F 100% 30.13 in 2.5 mi North 4.6 mph - N/A   Mostly Cloudy
11:17 PM 60.8 °F - 60.8 °F 100% 30.13 in 9.0 mi North 5.8 mph - N/A   Mostly Cloudy
11:54 PM 60.1 °F - 60.1 °F 100% 30.13 in 8.0 mi North 5.8 mph - N/A   Overcast